Year,Month,Day,Hour,Minute,Value (Times are PST for temperature in C)
2009,04,26,00,00,5.20
2009,04,26,00,01,5.20
2009,04,26,00,02,5.20
2009,04,26,00,03,5.20
2009,04,26,00,04,5.20
2009,04,26,00,05,5.20
2009,04,26,00,06,5.20
2009,04,26,00,07,5.20
2009,04,26,00,08,5.20
2009,04,26,00,09,5.20
2009,04,26,00,10,5.20
2009,04,26,00,11,5.20
2009,04,26,00,12,5.20
2009,04,26,00,13,5.20
2009,04,26,01,02,4.40
2009,04,26,01,03,4.40
2009,04,26,01,04,4.40
2009,04,26,01,05,4.40
2009,04,26,01,06,4.40
2009,04,26,01,07,4.40
2009,04,26,01,08,4.50
2009,04,26,01,09,4.50
2009,04,26,01,10,4.50
2009,04,26,01,11,4.50
2009,04,26,01,12,4.40
2009,04,26,01,13,4.50
2009,04,26,01,14,4.50
2009,04,26,01,15,4.50
2009,04,26,01,16,4.50
2009,04,26,01,17,4.50
2009,04,26,01,18,4.60
2009,04,26,01,19,4.60
2009,04,26,01,20,4.60
2009,04,26,01,21,4.60
2009,04,26,01,22,4.60
2009,04,26,01,23,4.70
2009,04,26,01,24,4.70
2009,04,26,01,25,4.70
2009,04,26,01,26,4.80
2009,04,26,01,27,4.90
2009,04,26,01,28,5.00
2009,04,26,01,29,5.00
2009,04,26,01,30,5.10
2009,04,26,01,31,5.20
2009,04,26,01,32,5.20
2009,04,26,01,33,5.20
2009,04,26,01,34,5.20
2009,04,26,01,35,5.20
2009,04,26,01,36,5.20
2009,04,26,01,37,5.10
2009,04,26,01,38,5.10
2009,04,26,01,39,5.10
2009,04,26,01,40,5.00
2009,04,26,01,41,5.00
2009,04,26,01,42,4.90
2009,04,26,01,43,4.90
2009,04,26,01,44,4.80
2009,04,26,01,45,4.80
2009,04,26,01,46,4.80
2009,04,26,01,47,4.70
2009,04,26,01,48,4.70
2009,04,26,01,49,4.60
2009,04,26,01,50,4.60
2009,04,26,01,51,4.50
2009,04,26,01,52,4.50
2009,04,26,01,53,4.40
2009,04,26,01,54,4.40
2009,04,26,01,55,4.40
2009,04,26,01,56,4.40
2009,04,26,01,57,4.30
2009,04,26,01,58,4.30
2009,04,26,01,59,4.30
2009,04,26,02,00,4.30
2009,04,26,02,01,4.20
2009,04,26,02,02,4.20
2009,04,26,02,03,4.20
2009,04,26,02,04,4.20
2009,04,26,02,05,4.10
2009,04,26,02,06,4.10
2009,04,26,02,07,4.10
2009,04,26,02,08,4.10
2009,04,26,02,09,4.10
2009,04,26,02,10,4.10
2009,04,26,02,11,4.10
2009,04,26,02,12,4.20
2009,04,26,02,13,4.30
2009,04,26,02,14,4.30
2009,04,26,02,15,4.30
2009,04,26,02,16,4.30
2009,04,26,02,17,4.30
2009,04,26,02,18,4.30
2009,04,26,02,19,4.30
2009,04,26,02,20,4.30
2009,04,26,02,21,4.30
2009,04,26,02,22,4.20
2009,04,26,02,23,4.20
2009,04,26,02,24,4.20
2009,04,26,02,25,4.20
2009,04,26,02,26,4.20
2009,04,26,02,27,4.20
2009,04,26,02,28,4.20
2009,04,26,02,29,4.20
2009,04,26,02,30,4.20
2009,04,26,02,31,4.20
2009,04,26,02,32,4.20
2009,04,26,02,33,4.20
2009,04,26,02,34,4.20
2009,04,26,02,35,4.20
2009,04,26,02,36,4.20
2009,04,26,02,37,4.20
2009,04,26,02,38,4.20
2009,04,26,02,39,4.20
2009,04,26,02,40,4.10
2009,04,26,02,41,4.10
2009,04,26,02,42,4.10
2009,04,26,02,43,4.10
2009,04,26,02,44,4.10
2009,04,26,02,45,4.10
2009,04,26,02,46,4.00
2009,04,26,02,47,4.00
2009,04,26,02,48,3.90
2009,04,26,02,49,3.90
2009,04,26,02,50,3.90
2009,04,26,02,51,3.90
2009,04,26,02,52,3.90
2009,04,26,02,53,3.90
2009,04,26,02,54,3.90
2009,04,26,02,55,3.90
2009,04,26,02,56,3.80
2009,04,26,02,57,3.80
2009,04,26,02,58,3.80
2009,04,26,02,59,3.80
2009,04,26,03,00,3.80
2009,04,26,03,01,3.80
2009,04,26,03,02,3.80
2009,04,26,03,03,3.80
2009,04,26,03,04,3.80
2009,04,26,03,05,3.80
2009,04,26,03,06,3.80
2009,04,26,03,07,3.80
2009,04,26,03,08,3.80
2009,04,26,03,09,3.80
2009,04,26,03,10,3.80
2009,04,26,03,11,3.80
2009,04,26,03,12,3.80
2009,04,26,03,13,3.90
2009,04,26,03,14,4.00
2009,04,26,03,15,4.00
2009,04,26,03,16,4.10
2009,04,26,03,17,4.10
2009,04,26,03,18,4.10
2009,04,26,03,19,4.20
2009,04,26,03,20,4.10
2009,04,26,03,21,4.10
2009,04,26,03,22,4.10
2009,04,26,03,23,4.10
2009,04,26,03,24,4.10
2009,04,26,03,25,4.10
2009,04,26,03,26,4.10
2009,04,26,03,27,4.10
2009,04,26,03,28,4.10
2009,04,26,03,29,4.20
2009,04,26,03,30,4.20
2009,04,26,03,31,4.30
2009,04,26,03,32,4.40
2009,04,26,03,33,4.50
2009,04,26,03,34,4.60
2009,04,26,03,35,4.70
2009,04,26,03,36,4.70
2009,04,26,03,37,4.80
2009,04,26,03,38,4.80
2009,04,26,03,39,4.80
2009,04,26,03,40,4.90
2009,04,26,03,41,4.90
2009,04,26,03,42,4.90
2009,04,26,03,43,4.90
2009,04,26,03,44,4.90
2009,04,26,03,45,4.90
2009,04,26,03,46,5.00
2009,04,26,03,47,5.10
2009,04,26,03,48,5.10
2009,04,26,03,49,5.10
2009,04,26,03,50,5.10
2009,04,26,03,51,5.00
2009,04,26,03,52,4.90
2009,04,26,03,53,4.90
2009,04,26,03,54,4.80
2009,04,26,03,55,4.70
2009,04,26,03,56,4.70
2009,04,26,03,57,4.60
2009,04,26,03,58,4.60
2009,04,26,03,59,4.60
2009,04,26,04,00,4.60
2009,04,26,04,01,4.60
2009,04,26,04,02,4.60
2009,04,26,04,03,4.60
2009,04,26,04,04,4.50
2009,04,26,04,05,4.50
2009,04,26,04,06,4.40
2009,04,26,04,07,4.30
2009,04,26,04,08,4.30
2009,04,26,04,09,4.30
2009,04,26,04,10,4.20
2009,04,26,04,11,4.20
2009,04,26,04,12,4.20
2009,04,26,04,13,4.20
2009,04,26,04,14,4.10
2009,04,26,04,15,4.10
2009,04,26,04,16,4.10
2009,04,26,04,17,4.00
2009,04,26,04,18,4.00
2009,04,26,04,19,3.90
2009,04,26,04,20,3.90
2009,04,26,04,21,3.80
2009,04,26,04,22,3.80
2009,04,26,04,23,3.80
2009,04,26,04,24,3.80
2009,04,26,04,25,3.70
2009,04,26,04,26,3.70
2009,04,26,04,27,3.70
2009,04,26,04,28,3.70
2009,04,26,04,29,3.60
2009,04,26,04,30,3.60
2009,04,26,04,31,3.60
2009,04,26,04,32,3.60
2009,04,26,04,33,3.60
2009,04,26,04,34,3.60
2009,04,26,04,35,3.60
2009,04,26,04,36,3.60
2009,04,26,04,37,3.60
2009,04,26,04,38,3.60
2009,04,26,04,39,3.70
2009,04,26,04,40,3.70
2009,04,26,04,41,3.70
2009,04,26,04,42,3.70
2009,04,26,04,43,3.70
2009,04,26,04,44,3.60
2009,04,26,04,45,3.60
2009,04,26,04,46,3.50
2009,04,26,04,47,3.50
2009,04,26,04,48,3.40
2009,04,26,04,49,3.40
2009,04,26,04,50,3.30
2009,04,26,04,51,3.20
2009,04,26,04,52,3.20
2009,04,26,04,53,3.10
2009,04,26,04,54,3.00
2009,04,26,04,55,3.00
2009,04,26,04,56,2.90
2009,04,26,04,57,2.90
2009,04,26,04,58,2.90
2009,04,26,04,59,2.90
2009,04,26,05,00,2.90
2009,04,26,05,01,2.90
2009,04,26,05,02,2.90
2009,04,26,05,03,2.90
2009,04,26,05,04,2.90
2009,04,26,05,05,2.90
2009,04,26,05,06,2.90
2009,04,26,05,07,2.90
2009,04,26,05,08,2.90
2009,04,26,05,09,2.90
2009,04,26,05,10,2.90
2009,04,26,05,11,2.90
2009,04,26,05,12,2.90
2009,04,26,05,13,2.90
2009,04,26,05,14,2.90
2009,04,26,05,15,2.90
2009,04,26,05,16,2.90
2009,04,26,05,17,2.90
2009,04,26,05,18,2.90
2009,04,26,05,19,2.80
2009,04,26,05,20,2.80
2009,04,26,05,21,2.80
2009,04,26,05,22,2.80
2009,04,26,05,23,2.80
2009,04,26,05,24,2.80
2009,04,26,05,25,2.80
2009,04,26,05,26,2.80
2009,04,26,05,27,2.80
2009,04,26,05,28,2.80
2009,04,26,05,29,2.80
2009,04,26,05,30,2.80
2009,04,26,05,31,2.90
2009,04,26,05,32,2.90
2009,04,26,05,33,2.90
2009,04,26,05,34,2.90
2009,04,26,05,35,2.90
2009,04,26,05,36,2.90
2009,04,26,05,37,2.90
2009,04,26,05,38,2.90
2009,04,26,05,39,2.80
2009,04,26,05,40,2.80
2009,04,26,05,41,2.80
2009,04,26,05,42,2.80
2009,04,26,05,43,2.80
2009,04,26,05,44,2.80
2009,04,26,05,45,2.80
2009,04,26,05,46,2.80
2009,04,26,05,47,2.70
2009,04,26,05,48,2.70
2009,04,26,05,49,2.70
2009,04,26,05,50,2.70
2009,04,26,05,51,2.70
2009,04,26,05,52,2.70
2009,04,26,05,53,2.70
2009,04,26,05,54,2.80
2009,04,26,05,55,2.80
2009,04,26,05,56,2.80
2009,04,26,05,57,2.80
2009,04,26,05,58,2.80
2009,04,26,05,59,2.80
2009,04,26,06,00,2.80
2009,04,26,06,01,2.80
2009,04,26,06,02,2.80
2009,04,26,06,03,2.80
2009,04,26,06,04,2.80
2009,04,26,06,05,2.80
2009,04,26,06,06,2.80
2009,04,26,06,07,2.80
2009,04,26,06,08,2.80
2009,04,26,06,09,2.80
2009,04,26,06,10,2.80
2009,04,26,06,11,2.80
2009,04,26,06,12,2.90
2009,04,26,06,13,2.90
2009,04,26,06,14,3.00
2009,04,26,06,15,3.00
2009,04,26,06,16,3.00
2009,04,26,06,17,3.00
2009,04,26,06,18,3.10
2009,04,26,06,19,3.10
2009,04,26,06,20,3.10
2009,04,26,06,21,3.10
2009,04,26,06,22,3.10
2009,04,26,06,23,3.10
2009,04,26,06,24,3.00
2009,04,26,06,25,3.10
2009,04,26,06,26,3.00
2009,04,26,06,27,3.00
2009,04,26,06,28,3.00
2009,04,26,06,29,3.00
2009,04,26,06,30,3.00
2009,04,26,06,31,3.00
2009,04,26,06,32,3.10
2009,04,26,06,33,3.10
2009,04,26,06,34,3.20
2009,04,26,06,35,3.20
2009,04,26,06,36,3.20
2009,04,26,06,37,3.20
2009,04,26,06,38,3.20
2009,04,26,06,39,3.20
2009,04,26,06,40,3.20
2009,04,26,06,41,3.20
2009,04,26,06,42,3.20
2009,04,26,06,43,3.20
2009,04,26,06,44,3.30
2009,04,26,06,45,3.30
2009,04,26,06,46,3.30
2009,04,26,06,47,3.30
2009,04,26,06,48,3.40
2009,04,26,06,49,3.40
2009,04,26,06,50,3.40
2009,04,26,06,51,3.40
2009,04,26,06,52,3.40
2009,04,26,06,53,3.50
2009,04,26,06,54,3.50
2009,04,26,06,55,3.50
2009,04,26,06,56,3.50
2009,04,26,06,57,3.50
2009,04,26,06,58,3.50
2009,04,26,06,59,3.50
2009,04,26,07,00,3.60
2009,04,26,07,01,3.60
2009,04,26,07,02,3.60
2009,04,26,07,03,3.60
2009,04,26,07,04,3.60
2009,04,26,07,05,3.60
2009,04,26,07,06,3.60
2009,04,26,07,07,3.60
2009,04,26,07,08,3.70
2009,04,26,07,09,3.70
2009,04,26,07,10,3.70
2009,04,26,07,11,3.80
2009,04,26,07,12,3.80
2009,04,26,07,13,3.90
2009,04,26,07,14,3.90
2009,04,26,07,15,4.00
2009,04,26,07,16,4.10
2009,04,26,07,17,4.20
2009,04,26,07,18,4.20
2009,04,26,07,19,4.30
2009,04,26,07,20,4.40
2009,04,26,07,21,4.50
2009,04,26,07,22,4.60
2009,04,26,07,23,4.60
2009,04,26,07,24,4.70
2009,04,26,07,25,4.70
2009,04,26,07,26,4.80
2009,04,26,07,27,4.90
2009,04,26,07,28,5.00
2009,04,26,07,29,5.00
2009,04,26,07,30,5.10
2009,04,26,07,31,5.20
2009,04,26,07,32,5.30
2009,04,26,07,33,5.40
2009,04,26,07,34,5.50
2009,04,26,07,35,5.60
2009,04,26,07,36,5.80
2009,04,26,07,37,5.90
2009,04,26,07,38,6.00
2009,04,26,07,39,6.10
2009,04,26,07,40,6.20
2009,04,26,07,41,6.30
2009,04,26,07,42,6.40
2009,04,26,07,43,6.50
2009,04,26,07,44,6.60
2009,04,26,07,45,6.70
2009,04,26,07,46,6.70
2009,04,26,07,47,6.80
2009,04,26,07,48,6.90
2009,04,26,07,49,6.90
2009,04,26,07,50,7.00
2009,04,26,07,51,7.10
2009,04,26,07,52,7.20
2009,04,26,07,53,7.20
2009,04,26,07,54,7.20
2009,04,26,07,55,7.30
2009,04,26,07,56,7.40
2009,04,26,07,57,7.50
2009,04,26,07,58,7.50
2009,04,26,07,59,7.60
2009,04,26,08,00,7.60
2009,04,26,08,01,7.70
2009,04,26,08,02,7.70
2009,04,26,08,03,7.70
2009,04,26,08,04,7.70
2009,04,26,08,05,7.60
2009,04,26,08,06,7.60
2009,04,26,08,07,7.50
2009,04,26,08,08,7.50
2009,04,26,08,09,7.50
2009,04,26,08,10,7.50
2009,04,26,08,11,7.40
2009,04,26,08,12,7.40
2009,04,26,08,13,7.40
2009,04,26,08,14,7.40
2009,04,26,08,15,7.40
2009,04,26,08,16,7.40
2009,04,26,08,17,7.40
2009,04,26,08,18,7.40
2009,04,26,08,19,7.40
2009,04,26,08,20,7.40
2009,04,26,08,21,7.40
2009,04,26,08,22,7.40
2009,04,26,08,23,7.40
2009,04,26,08,24,7.40
2009,04,26,08,25,7.40
2009,04,26,08,26,7.40
2009,04,26,08,27,7.40
2009,04,26,08,28,7.30
2009,04,26,08,29,7.30
2009,04,26,08,30,7.30
2009,04,26,08,31,7.30
2009,04,26,08,32,7.30
2009,04,26,08,33,7.30
2009,04,26,08,34,7.30
2009,04,26,08,35,7.30
2009,04,26,08,36,7.40
2009,04,26,08,37,7.40
2009,04,26,08,38,7.40
2009,04,26,08,39,7.40
2009,04,26,08,40,7.40
2009,04,26,08,41,7.50
2009,04,26,08,42,7.50
2009,04,26,08,43,7.60
2009,04,26,08,44,7.60
2009,04,26,08,45,7.60
2009,04,26,08,46,7.60
2009,04,26,08,47,7.60
2009,04,26,08,48,7.60
2009,04,26,08,49,7.70
2009,04,26,08,50,7.70
2009,04,26,08,51,7.70
2009,04,26,08,52,7.70
2009,04,26,08,53,7.70
2009,04,26,08,54,7.70
2009,04,26,08,55,7.70
2009,04,26,08,56,7.70
2009,04,26,08,57,7.70
2009,04,26,08,58,7.70
2009,04,26,08,59,7.70
2009,04,26,09,00,7.80
2009,04,26,09,01,7.80
2009,04,26,09,02,7.80
2009,04,26,09,03,7.80
2009,04,26,09,04,7.90
2009,04,26,09,05,7.90
2009,04,26,09,06,7.90
2009,04,26,09,07,7.90
2009,04,26,09,08,7.90
2009,04,26,09,09,7.90
2009,04,26,09,10,7.90
2009,04,26,09,11,8.00
2009,04,26,09,12,8.00
2009,04,26,09,13,8.10
2009,04,26,09,14,8.20
2009,04,26,09,15,8.20
2009,04,26,09,16,8.20
2009,04,26,09,17,8.20
2009,04,26,09,18,8.20
2009,04,26,09,19,8.30
2009,04,26,09,20,8.30
2009,04,26,09,21,8.30
2009,04,26,09,22,8.30
2009,04,26,09,23,8.30
2009,04,26,09,24,8.30
2009,04,26,09,25,8.30
2009,04,26,09,26,8.30
2009,04,26,09,27,8.30
2009,04,26,09,28,8.30
2009,04,26,09,29,8.40
2009,04,26,09,30,8.40
2009,04,26,09,31,8.40
2009,04,26,09,32,8.40
2009,04,26,09,33,8.40
2009,04,26,09,34,8.40
2009,04,26,09,35,8.50
2009,04,26,09,36,8.60
2009,04,26,09,37,8.60
2009,04,26,09,38,8.60
2009,04,26,09,39,8.60
2009,04,26,09,40,8.60
2009,04,26,09,41,8.60
2009,04,26,09,42,8.70
2009,04,26,09,43,8.70
2009,04,26,09,44,8.80
2009,04,26,09,45,8.80
2009,04,26,09,46,8.70
2009,04,26,09,47,8.80
2009,04,26,09,48,8.80
2009,04,26,09,49,8.90
2009,04,26,09,50,9.00
2009,04,26,09,51,8.90
2009,04,26,09,52,8.90
2009,04,26,09,53,8.90
2009,04,26,09,54,8.90
2009,04,26,09,55,9.00
2009,04,26,09,56,9.00
2009,04,26,09,57,9.00
2009,04,26,09,58,9.00
2009,04,26,09,59,8.90
2009,04,26,10,00,8.80
2009,04,26,10,01,8.80
2009,04,26,10,02,8.80
2009,04,26,10,03,8.70
2009,04,26,10,04,8.70
2009,04,26,10,05,8.60
2009,04,26,10,06,8.70
2009,04,26,10,07,8.80
2009,04,26,10,08,8.80
2009,04,26,10,09,8.90
2009,04,26,10,10,8.90
2009,04,26,10,11,9.00
2009,04,26,10,12,9.10
2009,04,26,10,13,9.10
2009,04,26,10,14,9.10
2009,04,26,10,15,9.20
2009,04,26,10,16,9.30
2009,04,26,10,17,9.40
2009,04,26,10,18,9.40
2009,04,26,10,19,9.40
2009,04,26,10,20,9.50
2009,04,26,10,21,9.50
2009,04,26,10,22,9.50
2009,04,26,10,23,9.60
2009,04,26,10,24,9.60
2009,04,26,10,25,9.60
2009,04,26,10,26,9.50
2009,04,26,10,27,9.40
2009,04,26,10,28,9.30
2009,04,26,10,29,9.30
2009,04,26,10,30,9.30
2009,04,26,10,31,9.40
2009,04,26,10,32,9.40
2009,04,26,10,33,9.50
2009,04,26,10,34,9.50
2009,04,26,10,35,9.30
2009,04,26,10,36,9.20
2009,04,26,10,37,9.10
2009,04,26,10,38,9.10
2009,04,26,10,39,9.20
2009,04,26,10,40,9.20
2009,04,26,10,41,9.30
2009,04,26,10,42,9.40
2009,04,26,10,43,9.60
2009,04,26,10,44,9.70
2009,04,26,10,45,9.80
2009,04,26,10,46,9.90
2009,04,26,10,47,10.00
2009,04,26,10,48,9.90
2009,04,26,10,49,9.80
2009,04,26,10,50,9.70
2009,04,26,10,51,9.70
2009,04,26,10,52,9.70
2009,04,26,10,53,9.60
2009,04,26,10,54,9.70
2009,04,26,10,55,9.70
2009,04,26,10,56,9.70
2009,04,26,10,57,9.70
2009,04,26,10,58,9.60
2009,04,26,10,59,9.60
2009,04,26,11,00,9.60
2009,04,26,11,01,9.60
2009,04,26,11,02,9.60
2009,04,26,11,03,9.50
2009,04,26,11,04,9.40
2009,04,26,11,05,9.40
2009,04,26,11,06,9.40
2009,04,26,11,07,9.50
2009,04,26,11,08,9.60
2009,04,26,11,09,9.60
2009,04,26,11,10,9.60
2009,04,26,11,11,9.60
2009,04,26,11,12,9.70
2009,04,26,11,13,9.80
2009,04,26,11,14,9.80
2009,04,26,11,15,9.80
2009,04,26,11,16,9.80
2009,04,26,11,17,9.70
2009,04,26,11,18,9.70
2009,04,26,11,19,9.60
2009,04,26,11,20,9.60
2009,04,26,11,21,9.60
2009,04,26,11,22,9.70
2009,04,26,11,23,9.70
2009,04,26,11,24,9.60
2009,04,26,11,25,9.60
2009,04,26,11,26,9.50
2009,04,26,11,27,9.50
2009,04,26,11,28,9.40
2009,04,26,11,29,9.40
2009,04,26,11,30,9.40
2009,04,26,11,31,9.50
2009,04,26,11,32,9.60
2009,04,26,11,33,9.70
2009,04,26,11,34,9.80
2009,04,26,11,35,9.80
2009,04,26,11,36,9.90
2009,04,26,11,37,10.00
2009,04,26,11,38,10.10
2009,04,26,11,39,10.10
2009,04,26,11,40,10.30
2009,04,26,11,41,10.30
2009,04,26,11,42,10.20
2009,04,26,11,43,10.30
2009,04,26,11,44,10.30
2009,04,26,11,45,10.30
2009,04,26,11,46,10.30
2009,04,26,11,47,10.30
2009,04,26,11,48,10.20
2009,04,26,11,49,10.20
2009,04,26,11,50,10.20
2009,04,26,11,51,10.30
2009,04,26,11,52,10.40
2009,04,26,11,53,10.40
2009,04,26,11,54,10.40
2009,04,26,11,55,10.50
2009,04,26,11,56,10.60
2009,04,26,11,57,10.70
2009,04,26,11,58,10.70
2009,04,26,11,59,10.70
2009,04,26,12,00,10.60
2009,04,26,12,01,10.50
2009,04,26,12,02,10.30
2009,04,26,12,03,10.30
2009,04,26,12,04,10.30
2009,04,26,12,05,10.30
2009,04,26,12,06,10.20
2009,04,26,12,07,10.20
2009,04,26,12,08,10.20
2009,04,26,12,09,10.30
2009,04,26,12,10,10.30
2009,04,26,12,11,10.40
2009,04,26,12,12,10.50
2009,04,26,12,13,10.70
2009,04,26,12,14,10.80
2009,04,26,12,15,10.90
2009,04,26,12,16,11.00
2009,04,26,12,17,11.20
2009,04,26,12,18,11.30
2009,04,26,12,19,11.40
2009,04,26,12,20,11.40
2009,04,26,12,21,11.40
2009,04,26,12,22,11.20
2009,04,26,12,23,11.20
2009,04,26,12,24,11.10
2009,04,26,12,25,11.10
2009,04,26,12,26,11.10
2009,04,26,12,27,11.10
2009,04,26,12,28,11.10
2009,04,26,12,29,11.10
2009,04,26,12,30,11.10
2009,04,26,12,31,11.20
2009,04,26,12,32,11.20
2009,04,26,12,33,11.10
2009,04,26,12,34,11.00
2009,04,26,12,35,10.90
2009,04,26,12,36,10.90
2009,04,26,12,37,11.00
2009,04,26,12,38,11.00
2009,04,26,12,39,11.00
2009,04,26,12,40,10.90
2009,04,26,12,41,10.80
2009,04,26,12,42,10.80
2009,04,26,12,43,10.70
2009,04,26,12,44,10.80
2009,04,26,12,45,10.80
2009,04,26,12,46,10.80
2009,04,26,12,47,10.80
2009,04,26,12,48,10.60
2009,04,26,12,49,10.50
2009,04,26,12,50,10.40
2009,04,26,12,51,10.30
2009,04,26,12,52,10.30
2009,04,26,12,53,10.30
2009,04,26,12,54,10.30
2009,04,26,12,55,10.30
2009,04,26,12,56,10.30
2009,04,26,12,57,10.20
2009,04,26,12,58,10.20
2009,04,26,12,59,10.20
2009,04,26,13,00,10.30
2009,04,26,13,01,10.40
2009,04,26,13,02,10.40
2009,04,26,13,03,10.40
2009,04,26,13,04,10.20
2009,04,26,13,05,10.10
2009,04,26,13,06,10.10
2009,04,26,13,07,10.00
2009,04,26,13,08,10.10
2009,04,26,13,09,10.20
2009,04,26,13,10,10.30
2009,04,26,13,11,10.50
2009,04,26,13,12,10.60
2009,04,26,13,13,10.60
2009,04,26,13,14,10.60
2009,04,26,13,15,10.60
2009,04,26,13,16,10.60
2009,04,26,13,17,10.60
2009,04,26,13,18,10.60
2009,04,26,13,19,10.50
2009,04,26,13,20,10.40
2009,04,26,13,21,10.40
2009,04,26,13,22,10.30
2009,04,26,13,23,10.20
2009,04,26,13,24,10.30
2009,04,26,13,25,10.30
2009,04,26,13,26,10.20
2009,04,26,13,27,10.20
2009,04,26,13,28,10.20
2009,04,26,13,29,10.20
2009,04,26,13,30,10.30
2009,04,26,13,31,10.40
2009,04,26,13,32,10.60
2009,04,26,13,33,10.70
2009,04,26,13,34,10.70
2009,04,26,13,35,10.70
2009,04,26,13,36,10.80
2009,04,26,13,37,10.80
2009,04,26,13,38,10.80
2009,04,26,13,39,10.90
2009,04,26,13,40,10.90
2009,04,26,13,41,10.80
2009,04,26,13,42,10.70
2009,04,26,13,43,10.50
2009,04,26,13,44,10.50
2009,04,26,13,45,10.50
2009,04,26,13,46,10.60
2009,04,26,13,47,10.70
2009,04,26,13,48,10.70
2009,04,26,13,49,10.80
2009,04,26,13,50,10.90
2009,04,26,13,51,11.00
2009,04,26,13,52,11.00
2009,04,26,13,53,11.10
2009,04,26,13,54,11.10
2009,04,26,13,55,11.20
2009,04,26,13,56,11.20
2009,04,26,13,57,11.20
2009,04,26,13,58,11.20
2009,04,26,13,59,11.20
2009,04,26,14,00,11.20
2009,04,26,14,01,11.20
2009,04,26,14,02,11.30
2009,04,26,14,03,11.30
2009,04,26,14,04,11.40
2009,04,26,14,05,11.50
2009,04,26,14,06,11.50
2009,04,26,14,07,11.70
2009,04,26,14,08,11.80
2009,04,26,14,09,11.90
2009,04,26,14,10,11.90
2009,04,26,14,11,11.90
2009,04,26,14,12,12.00
2009,04,26,14,13,12.10
2009,04,26,14,14,12.10
2009,04,26,14,15,12.10
2009,04,26,14,16,12.10
2009,04,26,14,17,12.10
2009,04,26,14,18,12.10
2009,04,26,14,19,12.20
2009,04,26,14,20,12.30
2009,04,26,14,21,12.40
2009,04,26,14,22,12.50
2009,04,26,14,23,12.60
2009,04,26,14,24,12.50
2009,04,26,14,25,12.40
2009,04,26,14,26,12.30
2009,04,26,14,27,12.30
2009,04,26,14,28,12.30
2009,04,26,14,29,12.40
2009,04,26,14,30,12.60
2009,04,26,14,31,12.70
2009,04,26,14,32,12.80
2009,04,26,14,33,13.00
2009,04,26,14,34,13.10
2009,04,26,14,35,13.10
2009,04,26,14,36,13.10
2009,04,26,14,37,13.10
2009,04,26,14,38,13.10
2009,04,26,14,39,12.90
2009,04,26,14,40,12.80
2009,04,26,14,41,12.70
2009,04,26,14,42,12.70
2009,04,26,14,43,12.60
2009,04,26,14,44,12.60
2009,04,26,14,45,12.60
2009,04,26,14,46,12.60
2009,04,26,14,47,12.70
2009,04,26,14,48,12.80
2009,04,26,14,49,12.80
2009,04,26,14,50,12.70
2009,04,26,14,51,12.50
2009,04,26,14,52,12.30
2009,04,26,14,53,12.30
2009,04,26,14,54,12.30
2009,04,26,14,55,12.30
2009,04,26,14,56,12.20
2009,04,26,14,57,12.10
2009,04,26,14,58,12.00
2009,04,26,14,59,12.10
2009,04,26,15,00,12.20
2009,04,26,15,01,12.30
2009,04,26,15,02,12.30
2009,04,26,15,03,12.20
2009,04,26,15,04,12.10
2009,04,26,15,05,12.10
2009,04,26,15,06,12.10
2009,04,26,15,07,12.10
2009,04,26,15,08,12.10
2009,04,26,15,09,12.00
2009,04,26,15,10,12.00
2009,04,26,15,11,12.10
2009,04,26,15,12,12.20
2009,04,26,15,13,12.20
2009,04,26,15,14,12.20
2009,04,26,15,15,12.30
2009,04,26,15,16,12.30
2009,04,26,15,17,12.40
2009,04,26,15,18,12.60
2009,04,26,15,19,12.60
2009,04,26,15,20,12.70
2009,04,26,15,21,12.70
2009,04,26,15,22,12.70
2009,04,26,15,23,12.50
2009,04,26,15,24,12.30
2009,04,26,15,25,12.10
2009,04,26,15,26,12.10
2009,04,26,15,27,12.10
2009,04,26,15,28,12.10
2009,04,26,15,29,12.20
2009,04,26,15,30,12.30
2009,04,26,15,31,12.40
2009,04,26,15,32,12.50
2009,04,26,15,33,12.70
2009,04,26,15,34,12.80
2009,04,26,15,35,13.00
2009,04,26,15,36,13.10
2009,04,26,15,37,13.10
2009,04,26,15,38,13.20
2009,04,26,15,39,13.30
2009,04,26,15,40,13.40
2009,04,26,15,41,13.60
2009,04,26,15,42,13.70
2009,04,26,15,43,13.90
2009,04,26,15,44,14.00
2009,04,26,15,45,14.10
2009,04,26,15,46,14.20
2009,04,26,15,47,14.10
2009,04,26,15,48,14.10
2009,04,26,15,49,14.00
2009,04,26,15,50,14.00
2009,04,26,15,51,13.90
2009,04,26,15,52,13.70
2009,04,26,15,53,13.50
2009,04,26,15,54,13.40
2009,04,26,15,55,13.10
2009,04,26,15,56,13.00
2009,04,26,15,57,12.90
2009,04,26,15,58,12.80
2009,04,26,15,59,12.80
2009,04,26,16,00,12.80
2009,04,26,16,01,12.90
2009,04,26,16,02,13.10
2009,04,26,16,03,13.30
2009,04,26,16,04,13.50
2009,04,26,16,05,13.60
2009,04,26,16,06,13.70
2009,04,26,16,07,13.60
2009,04,26,16,08,13.60
2009,04,26,16,09,13.70
2009,04,26,16,10,13.80
2009,04,26,16,11,13.90
2009,04,26,16,12,13.90
2009,04,26,16,13,14.00
2009,04,26,16,14,14.00
2009,04,26,16,15,13.90
2009,04,26,16,16,13.70
2009,04,26,16,17,13.50
2009,04,26,16,18,13.30
2009,04,26,16,19,13.20
2009,04,26,16,20,13.10
2009,04,26,16,21,13.00
2009,04,26,16,22,12.90
2009,04,26,16,23,12.90
2009,04,26,16,24,12.90
2009,04,26,16,25,13.00
2009,04,26,16,26,13.00
2009,04,26,16,27,13.10
2009,04,26,16,28,13.20
2009,04,26,16,29,13.20
2009,04,26,16,30,13.20
2009,04,26,16,31,13.20
2009,04,26,16,32,13.30
2009,04,26,16,33,13.30
2009,04,26,16,34,13.10
2009,04,26,16,35,13.10
2009,04,26,16,36,13.10
2009,04,26,16,37,13.10
2009,04,26,16,38,13.10
2009,04,26,16,39,13.10
2009,04,26,16,40,13.00
2009,04,26,16,41,13.10
2009,04,26,16,42,13.10
2009,04,26,16,43,13.10
2009,04,26,16,44,13.10
2009,04,26,16,45,13.20
2009,04,26,16,46,13.20
2009,04,26,16,47,13.30
2009,04,26,16,48,13.30
2009,04,26,16,49,13.30
2009,04,26,16,50,13.30
2009,04,26,16,51,13.40
2009,04,26,16,52,13.60
2009,04,26,16,53,13.80
2009,04,26,16,54,13.90
2009,04,26,16,55,14.00
2009,04,26,16,56,14.00
2009,04,26,16,57,14.10
2009,04,26,16,58,14.00
2009,04,26,16,59,13.80
2009,04,26,17,00,13.80
2009,04,26,17,01,13.70
2009,04,26,17,02,13.70
2009,04,26,17,03,13.70
2009,04,26,17,04,13.70
2009,04,26,17,05,13.70
2009,04,26,17,06,13.80
2009,04,26,17,07,13.80
2009,04,26,17,08,13.80
2009,04,26,17,09,13.90
2009,04,26,17,10,13.90
2009,04,26,17,11,14.10
2009,04,26,17,12,14.10
2009,04,26,17,13,14.20
2009,04,26,17,14,14.20
2009,04,26,17,15,14.20
2009,04,26,17,16,14.10
2009,04,26,17,17,14.10
2009,04,26,17,18,14.00
2009,04,26,17,19,13.90
2009,04,26,17,20,13.90
2009,04,26,17,21,13.80
2009,04,26,17,22,13.80
2009,04,26,17,23,13.80
2009,04,26,17,24,13.80
2009,04,26,17,25,13.80
2009,04,26,17,26,13.80
2009,04,26,17,27,13.60
2009,04,26,17,28,13.50
2009,04,26,17,29,13.40
2009,04,26,17,30,13.40
2009,04,26,17,31,13.40
2009,04,26,17,32,13.50
2009,04,26,17,33,13.50
2009,04,26,17,34,13.50
2009,04,26,17,35,13.60
2009,04,26,17,36,13.70
2009,04,26,17,37,13.80
2009,04,26,17,38,13.90
2009,04,26,17,39,14.00
2009,04,26,17,40,14.10
2009,04,26,17,41,14.10
2009,04,26,17,42,14.00
2009,04,26,17,43,14.00
2009,04,26,17,44,13.80
2009,04,26,17,45,13.70
2009,04,26,17,46,13.60
2009,04,26,17,47,13.50
2009,04,26,17,48,13.50
2009,04,26,17,49,13.50
2009,04,26,17,50,13.50
2009,04,26,17,51,13.50
2009,04,26,17,52,13.60
2009,04,26,17,53,13.50
2009,04,26,17,54,13.50
2009,04,26,17,55,13.40
2009,04,26,17,56,13.30
2009,04,26,17,57,13.20
2009,04,26,17,58,13.20
2009,04,26,17,59,13.20
2009,04,26,18,00,13.10
2009,04,26,18,01,13.10
2009,04,26,18,02,13.10
2009,04,26,18,03,13.00
2009,04,26,18,04,13.00
2009,04,26,18,05,13.00
2009,04,26,18,06,13.00
2009,04,26,18,07,13.00
2009,04,26,18,08,12.90
2009,04,26,18,09,12.90
2009,04,26,18,10,13.00
2009,04,26,18,11,13.00
2009,04,26,18,12,13.10
2009,04,26,18,13,13.00
2009,04,26,18,14,13.00
2009,04,26,18,15,12.90
2009,04,26,18,16,12.90
2009,04,26,18,17,12.90
2009,04,26,18,18,12.90
2009,04,26,18,19,12.90
2009,04,26,18,20,12.90
2009,04,26,18,21,12.90
2009,04,26,18,22,12.90
2009,04,26,18,23,13.00
2009,04,26,18,24,13.10
2009,04,26,18,25,13.10
2009,04,26,18,26,13.20
2009,04,26,18,27,13.30
2009,04,26,18,28,13.30
2009,04,26,18,29,13.20
2009,04,26,18,30,13.20
2009,04,26,18,31,13.10
2009,04,26,18,32,13.10
2009,04,26,18,33,13.10
2009,04,26,18,34,13.10
2009,04,26,18,35,13.10